DW8501 Madrid ES current weather conditions

sailwx.info

Wind from 061 at 1 knots gusting 7

Air temperature 23.9° C
Dewpoint 7.9° C

Last reported at 2018-Apr-21 15:10 UTC.
Time now 2018-Apr-21 15:44 UTC

Location: N 40°27' W 003°35'.
View on Google Maps.

See reports from other nearby stations

  
Tides and Currents Weather Stations Pressure Air Temp Water Temp Dewpoint Dewpoint Depression Visibility Wind Speed Wind Dir Waves Ship Positions
date/time (UTC)wind fromknots sea level pressurealtimeterstation pressurevisibilityair tempwater tempwave heightnotes
2018-Apr-21 15:10 061 1 gusting 7 23.9
2018-Apr-21 15:05 051 1 gusting 4 23.9
2018-Apr-21 15:00 063 3 gusting 6 23.9
2018-Apr-21 14:55 013 1 gusting 6 23.3
2018-Apr-21 14:50 041 1 gusting 12 23.9
2018-Apr-21 14:45 060 3 gusting 12 23.9
2018-Apr-21 14:40 055 5 gusting 9 23.3
2018-Apr-21 14:35 071 1 gusting 11 22.2
2018-Apr-21 14:30 086 5 gusting 11 22.2
2018-Apr-21 14:25 068 4 gusting 8 22.2
2018-Apr-21 14:20 062 6 gusting 8 21.7
2018-Apr-21 14:15 081 5 gusting 14 21.1
2018-Apr-21 14:10 082 0 gusting 14 20.6
2018-Apr-21 14:05 100 6 gusting 13 21.1
2018-Apr-21 14:00 105 6 gusting 9 21.7
2018-Apr-21 13:55 081 3 gusting 8 21.1
2018-Apr-21 13:50 095 5 gusting 11 21.1
2018-Apr-21 13:45 095 4 gusting 11 21.1
2018-Apr-21 13:40 21.1
2018-Apr-21 13:35 110 6 gusting 10 20.0
2018-Apr-21 13:30 097 4 gusting 11 19.4
2018-Apr-21 13:25 103 3 gusting 11 18.9
2018-Apr-21 13:20 096 6 gusting 8 18.9
2018-Apr-21 13:15 098 4 gusting 12 18.3
2018-Apr-21 13:10 098 9 gusting 14 18.3
2018-Apr-21 13:05 080 7 gusting 15 18.3
2018-Apr-21 13:00 074 10 gusting 17 18.3
2018-Apr-21 12:55 078 7 gusting 17 18.3
2018-Apr-21 12:50 069 6 gusting 14 18.3
2018-Apr-21 12:45 077 8 gusting 13 17.8
2018-Apr-21 12:40 091 7 gusting 14 17.2
2018-Apr-21 12:35 066 8 gusting 15 17.2
2018-Apr-21 12:30 064 6 gusting 15 17.2
2018-Apr-21 12:25 080 9 gusting 14 17.2
2018-Apr-21 12:20 078 6 gusting 14 17.2
2018-Apr-21 12:15 084 10 gusting 15 17.2
2018-Apr-21 12:10 070 6 gusting 15 17.2
2018-Apr-21 12:05 069 8 gusting 14 17.2
2018-Apr-21 12:00 084 11 gusting 14 17.2
2018-Apr-21 11:55 073 9 gusting 13 16.7
2018-Apr-21 11:50 093 8 gusting 13 16.7
2018-Apr-21 11:45 111 7 gusting 13 16.7
2018-Apr-21 11:40 083 8 gusting 12 17.2
2018-Apr-21 11:35 083 6 gusting 13 16.7
2018-Apr-21 11:30 090 8 gusting 13 16.7
2018-Apr-21 11:25 093 6 gusting 13 16.7
2018-Apr-21 11:20 093 7 gusting 13 16.7
2018-Apr-21 11:15 066 6 gusting 10 16.7
2018-Apr-21 11:10 035 4 gusting 9 16.7
2018-Apr-21 11:05 065 6 gusting 9 16.7
2018-Apr-21 11:00 077 5 gusting 11 16.7
2018-Apr-21 10:55 084 9 gusting 11 16.7
2018-Apr-21 10:50 103 3 gusting 9 16.7
2018-Apr-21 10:45 088 6 gusting 9 16.7
2018-Apr-21 10:40 067 6 gusting 9 16.7
2018-Apr-21 10:35 090 2 gusting 10 16.7
2018-Apr-21 10:30 091 3 gusting 10 16.7
2018-Apr-21 10:25 078 6 gusting 9 16.7
2018-Apr-21 10:20 091 4 gusting 9 16.7
2018-Apr-21 10:15 111 6 gusting 10 16.7
2018-Apr-21 10:10 085 3 gusting 10 16.7
2018-Apr-21 10:05 070 4 gusting 10 16.7
2018-Apr-21 10:00 078 5 gusting 10 16.7
2018-Apr-21 09:55 080 7 gusting 10 16.7
2018-Apr-21 09:50 081 5 gusting 8 16.1
2018-Apr-21 09:45 089 6 gusting 8 16.1
2018-Apr-21 09:40 108 5 gusting 8 16.1
2018-Apr-21 09:35 118 4 gusting 9 16.1
2018-Apr-21 09:30 100 3 gusting 9 16.1
2018-Apr-21 09:25 089 6 gusting 9 16.1
2018-Apr-21 09:20 080 2 gusting 6 16.1
2018-Apr-21 09:15 076 6 gusting 6 16.1
2018-Apr-21 09:10 054 3 gusting 6 16.1
2018-Apr-21 09:05 050 4 gusting 6 16.1
2018-Apr-21 09:00 082 4 gusting 6 15.6
2018-Apr-21 08:55 089 1 gusting 6 14.4
2018-Apr-21 08:50 078 4 gusting 6 14.4
2018-Apr-21 08:45 064 3 gusting 6 14.4
2018-Apr-21 08:40 053 2 gusting 6 13.9
2018-Apr-21 08:35 085 5 gusting 6 13.9
2018-Apr-21 08:30 079 3 gusting 6 13.3
2018-Apr-21 08:25 061 3 gusting 5 13.9
2018-Apr-21 08:20 073 1 gusting 5 13.3
2018-Apr-21 08:15 056 2 gusting 3 13.9
2018-Apr-21 08:10 040 2 gusting 3 13.3
2018-Apr-21 08:05 059 2 gusting 4 13.3
2018-Apr-21 08:00 087 1 gusting 4 13.3
2018-Apr-21 07:55 084 3 gusting 6 13.3
2018-Apr-21 07:50 082 3 gusting 6 13.3
2018-Apr-21 07:45 070 4 gusting 6 13.3
2018-Apr-21 07:40 052 3 gusting 5 13.3
2018-Apr-21 07:35 052 3 gusting 3 13.3
2018-Apr-21 07:30 063 1 gusting 5 13.3
2018-Apr-21 07:25 078 2 gusting 5 13.3
2018-Apr-21 07:20 083 1 gusting 3 13.9
2018-Apr-21 07:15 065 2 gusting 3 13.9
2018-Apr-21 07:10 057 1 gusting 3 13.9
2018-Apr-21 07:05 046 2 gusting 3 13.9
2018-Apr-21 07:00 090 2 gusting 3 13.9
2018-Apr-21 06:55 090 2 gusting 3 13.9
2018-Apr-21 06:50 090 2 gusting 3 13.9
2018-Apr-21 06:45 069 2 gusting 3 13.9
2018-Apr-21 06:40 010 1 gusting 3 13.3
2018-Apr-21 06:35 344 2 gusting 3 12.8
2018-Apr-21 06:30 040 1 gusting 2 12.8
2018-Apr-21 06:25 045 1 gusting 2 11.7
2018-Apr-21 06:20 045 1 gusting 2 11.7
2018-Apr-21 06:15 315 1 gusting 3 10.6
2018-Apr-21 06:10 315 1 gusting 3 10.6
2018-Apr-21 06:05 315 1 gusting 3 10.6
2018-Apr-21 06:00 315 1 gusting 3 10.6
2018-Apr-21 05:55 317 1 gusting 3 10.6
2018-Apr-21 05:50 325 1 gusting 3 10.6
2018-Apr-21 05:45 335 1 gusting 3 10.6
2018-Apr-21 05:40 352 0 gusting 2 10.6
2018-Apr-21 05:35 022 1 gusting 3 10.6
2018-Apr-21 05:30 076 2 gusting 6 10.6
2018-Apr-21 05:25 089 5 gusting 6 11.1
2018-Apr-21 05:20 079 5 gusting 6 11.1
2018-Apr-21 05:15 063 5 gusting 6 11.1
2018-Apr-21 05:10 068 3 gusting 7 11.1
2018-Apr-21 05:05 067 3 gusting 8 11.1
2018-Apr-21 05:00 067 6 gusting 8 11.1
2018-Apr-21 04:55 063 5 gusting 7 11.1
2018-Apr-21 04:50 055 3 gusting 6 11.1
2018-Apr-21 04:45 056 4 gusting 6 11.1
2018-Apr-21 04:40 061 3 gusting 6 11.1
2018-Apr-21 04:35 051 5 gusting 6 11.1
2018-Apr-21 04:30 043 3 gusting 6 11.1
2018-Apr-21 04:25 054 3 gusting 6 11.1
2018-Apr-21 04:20 056 4 gusting 6 11.7
2018-Apr-21 04:15 060 3 gusting 6 11.7
2018-Apr-21 04:10 068 1 gusting 6 11.7
2018-Apr-21 04:05 063 3 gusting 6 11.7
2018-Apr-21 04:00 055 3 gusting 6 11.7
2018-Apr-21 03:55 048 3 gusting 6 11.7
2018-Apr-21 03:50 044 3 gusting 6 11.7
2018-Apr-21 03:45 058 2 gusting 5 11.7
2018-Apr-21 03:40 071 3 gusting 5 11.7
2018-Apr-21 03:35 072 3 gusting 6 12.2
2018-Apr-21 03:30 067 1 gusting 6 12.2
2018-Apr-21 03:25 067 3 gusting 6 12.2
2018-Apr-21 03:20 072 3 gusting 6 12.2
2018-Apr-21 03:15 067 2 gusting 6 12.2
2018-Apr-21 03:10 071 3 gusting 9 12.2
2018-Apr-21 03:05 083 4 gusting 9 12.2
2018-Apr-21 03:00 086 3 gusting 6 12.8
2018-Apr-21 02:55 079 2 gusting 6 12.8
2018-Apr-21 02:50 094 4 gusting 6 12.8
2018-Apr-21 02:45 101 1 gusting 4 12.8
2018-Apr-21 02:40 082 1 gusting 5 12.8
2018-Apr-21 02:35 073 3 gusting 6 12.8
2018-Apr-21 02:30 064 2 gusting 6 13.3
2018-Apr-21 02:25 083 3 gusting 6 13.3
2018-Apr-21 02:20 128 3 gusting 5 13.3
2018-Apr-21 02:15 127 2 gusting 5 13.3
2018-Apr-21 02:10 146 3 gusting 6 13.3
2018-Apr-21 02:05 128 1 gusting 6 13.3
2018-Apr-21 02:00 118 4 gusting 6 13.3
2018-Apr-21 01:55 116 3 gusting 6 13.3
2018-Apr-21 01:50 081 3 gusting 8 13.3
2018-Apr-21 01:45 090 4 gusting 8 13.3
2018-Apr-21 01:40 105 3 gusting 5 13.3
2018-Apr-21 01:35 091 3 gusting 5 13.3
2018-Apr-21 01:30 083 3 gusting 5 13.3
2018-Apr-21 01:25 110 1 gusting 4 13.3
2018-Apr-21 01:20 112 0 gusting 4 13.3
2018-Apr-21 01:15 095 3 gusting 4 13.3
2018-Apr-21 01:10 102 0 gusting 2 13.3
2018-Apr-21 01:05 106 1 gusting 3 13.3
2018-Apr-21 01:00 101 1 gusting 3 13.3
2018-Apr-21 00:55 102 1 gusting 2 13.3
2018-Apr-21 00:50 13.3
2018-Apr-21 00:45 13.3
2018-Apr-21 00:40 13.3
2018-Apr-21 00:35 120 1 gusting 3 13.9
2018-Apr-21 00:30 124 1 gusting 3 13.9
2018-Apr-21 00:25 140 1 gusting 4 13.9
2018-Apr-21 00:20 127 1 gusting 4 13.9
2018-Apr-21 00:15 116 2 gusting 3 13.9
2018-Apr-21 00:10 140 2 gusting 5 13.9
2018-Apr-21 00:05 148 1 gusting 5 13.9
2018-Apr-21 00:00 143 3 gusting 6 14.4
2018-Apr-20 23:55 124 3 gusting 6 14.4
2018-Apr-20 23:50 126 2 gusting 5 14.4
2018-Apr-20 23:45 143 2 gusting 5 14.4
2018-Apr-20 23:40 147 2 gusting 4 14.4
2018-Apr-20 23:35 141 2 gusting 3 14.4
2018-Apr-20 23:30 122 1 gusting 3 14.4
2018-Apr-20 23:25 118 1 gusting 3 14.4
2018-Apr-20 23:20 138 1 gusting 3 14.4
2018-Apr-20 23:15 142 2 gusting 4 14.4
2018-Apr-20 23:10 118 1 gusting 4 15.0
2018-Apr-20 23:05 111 2 gusting 4 15.0
2018-Apr-20 23:00 109 2 gusting 4 15.0
2018-Apr-20 22:55 119 1 gusting 4 15.0
2018-Apr-20 22:50 128 1 gusting 4 15.0
2018-Apr-20 22:45 126 0 gusting 3 15.0
2018-Apr-20 22:40 125 0 gusting 3 15.0
2018-Apr-20 22:35 144 0 gusting 3 15.0
2018-Apr-20 22:30 161 1 gusting 5 15.6
2018-Apr-20 22:25 131 1 gusting 6 15.6
2018-Apr-20 22:20 138 3 gusting 6 15.6
2018-Apr-20 22:15 149 2 gusting 6 15.6
2018-Apr-20 22:10 143 3 gusting 6 15.6
2018-Apr-20 22:05 148 1 gusting 6 15.6
2018-Apr-20 22:00 119 1 gusting 6 15.6
2018-Apr-20 21:55 115 1 gusting 8 15.6
2018-Apr-20 21:50 122 1 gusting 8 15.6
2018-Apr-20 21:45 133 4 gusting 8 15.6
2018-Apr-20 21:40 145 3 gusting 6 15.6
2018-Apr-20 21:35 144 1 gusting 6 15.6
2018-Apr-20 21:30 147 2 gusting 6 15.6
2018-Apr-20 21:25 139 1 gusting 6 16.1
2018-Apr-20 21:20 142 3 gusting 6 16.1
2018-Apr-20 21:15 167 1 gusting 6 16.1
2018-Apr-20 21:10 156 3 gusting 7 16.1
2018-Apr-20 21:05 136 2 gusting 8 16.1
2018-Apr-20 21:00 137 2 gusting 8 16.1
2018-Apr-20 20:55 147 1 gusting 7 16.7
2018-Apr-20 20:50 155 2 gusting 8 16.7
2018-Apr-20 20:45 156 2 gusting 8 16.7
2018-Apr-20 20:40 147 5 gusting 8 16.7
2018-Apr-20 20:35 155 2 gusting 6 16.7
2018-Apr-20 20:30 163 2 gusting 6 16.7
2018-Apr-20 20:25 129 3 gusting 6 16.7
2018-Apr-20 20:20 145 2 gusting 8 16.7
2018-Apr-20 20:15 192 2 gusting 8 16.7
2018-Apr-20 20:10 163 2 gusting 8 16.7
2018-Apr-20 20:05 149 3 gusting 8 17.2
2018-Apr-20 20:00 150 3 gusting 9 17.2
2018-Apr-20 19:55 146 3 gusting 9 17.2
2018-Apr-20 19:50 154 4 gusting 9 17.2
2018-Apr-20 19:45 171 4 gusting 9 17.2
2018-Apr-20 19:40 201 5 gusting 15 17.2
2018-Apr-20 19:35 194 6 gusting 15 17.8
2018-Apr-20 19:30 155 3 gusting 14 17.8
2018-Apr-20 19:25 161 6 gusting 11 17.8
2018-Apr-20 19:20 176 4 gusting 11 17.8
2018-Apr-20 19:15 152 4 gusting 13 17.8
2018-Apr-20 19:10 155 6 gusting 13 17.8
2018-Apr-20 19:05 162 6 gusting 13 17.8
2018-Apr-20 19:00 164 6 gusting 12 18.3
2018-Apr-20 18:55 166 6 gusting 11 18.3
2018-Apr-20 18:50 129 3 gusting 9 18.3
2018-Apr-20 18:45 128 3 gusting 14 18.9
2018-Apr-20 18:40 133 2 gusting 14 18.9
2018-Apr-20 18:35 138 3 gusting 10 18.9
2018-Apr-20 18:30 137 3 gusting 10 19.4
2018-Apr-20 18:25 133 6 gusting 18 19.4
2018-Apr-20 18:20 125 3 gusting 18 19.4
2018-Apr-20 18:15 111 6 gusting 12 20.0
2018-Apr-20 18:10 122 7 gusting 14 20.6
2018-Apr-20 18:05 127 4 gusting 14 20.6
2018-Apr-20 18:00 131 7 gusting 14 20.6
2018-Apr-20 17:55 126 3 gusting 13 21.1
2018-Apr-20 17:50 138 3 gusting 13 21.1
2018-Apr-20 17:45 156 6 gusting 13 21.7
2018-Apr-20 17:40 150 5 gusting 12 21.7
2018-Apr-20 17:35 173 5 gusting 11 21.7
2018-Apr-20 17:30 166 3 gusting 13 21.7
2018-Apr-20 17:25 157 5 gusting 13 21.7
2018-Apr-20 17:20 161 6 gusting 12 22.2
2018-Apr-20 17:15 161 3 gusting 12 22.2
2018-Apr-20 17:10 154 1 gusting 10 22.2
2018-Apr-20 17:05 157 6 gusting 13 22.2
2018-Apr-20 17:00 160 6 gusting 13 22.2
2018-Apr-20 16:55 146 3 gusting 13 22.8
2018-Apr-20 16:50 128 6 gusting 13 22.8
2018-Apr-20 16:45 141 5 gusting 13 23.3
2018-Apr-20 16:40 141 1 gusting 14 22.8
2018-Apr-20 16:35 147 7 gusting 14 22.8
2018-Apr-20 16:30 179 4 gusting 13 22.8
2018-Apr-20 16:25 181 6 gusting 13 22.8
2018-Apr-20 16:20 159 6 gusting 13 23.9
2018-Apr-20 16:15 151 1 gusting 10 23.9
2018-Apr-20 16:10 146 6 gusting 13 23.9
2018-Apr-20 16:05 145 2 gusting 13 23.9
2018-Apr-20 16:00 163 3 gusting 11 24.4
2018-Apr-20 15:55 188 2 gusting 9 24.4
2018-Apr-20 15:50 145 4 gusting 9 24.4
2018-Apr-20 15:45 127 1 gusting 8 24.4
2018-Apr-20 15:40 157 3 gusting 10 24.4
2018-Apr-20 15:35 154 1 gusting 11 23.9
2018-Apr-20 15:30 153 1 gusting 11 23.9
2018-Apr-20 15:25 155 4 gusting 12 23.9
2018-Apr-20 15:20 149 3 gusting 13 23.3
2018-Apr-20 15:15 158 6 gusting 13 23.3
2018-Apr-20 15:10 165 6 gusting 13 23.3
2018-Apr-20 15:05 154 6 gusting 12 23.9
2018-Apr-20 15:00 141 3 gusting 14 23.9
2018-Apr-20 14:55 123 4 gusting 14 23.9
2018-Apr-20 14:50 099 6 gusting 13 23.9
2018-Apr-20 14:45 103 5 gusting 12 24.4
2018-Apr-20 14:40 127 5 gusting 12 24.4
2018-Apr-20 14:35 140 4 gusting 9 24.4
2018-Apr-20 14:30 131 4 gusting 8 23.3
2018-Apr-20 14:25 141 4 gusting 9 23.3
2018-Apr-20 14:20 153 3 gusting 9 23.3
2018-Apr-20 14:15 174 1 gusting 13 23.9
2018-Apr-20 14:10 161 2 gusting 13 23.9
2018-Apr-20 14:05 132 5 gusting 9 25.6
2018-Apr-20 14:00 133 3 gusting 9 24.4
2018-Apr-20 13:55 146 6 gusting 11 23.9
2018-Apr-20 13:50 153 2 gusting 15 22.8
2018-Apr-20 13:45 151 5 gusting 15 22.8
2018-Apr-20 13:40 160 3 gusting 10 23.3
2018-Apr-20 13:35 171 3 gusting 9 23.9
2018-Apr-20 13:30 159 6 gusting 9 23.9
2018-Apr-20 13:25 162 3 gusting 6 23.9
2018-Apr-20 13:20 150 2 gusting 6 23.9
2018-Apr-20 13:15 126 2 gusting 6 23.3
2018-Apr-20 13:10 121 2 gusting 13 22.8
2018-Apr-20 13:05 116 3 gusting 13 21.7
2018-Apr-20 13:00 113 3 gusting 9 21.7
2018-Apr-20 12:55 133 2 gusting 9 21.1
2018-Apr-20 12:50 142 3 gusting 9 21.1
2018-Apr-20 12:45 125 5 gusting 9 20.6
2018-Apr-20 12:40 114 4 gusting 9 20.6
2018-Apr-20 12:35 129 3 gusting 8 20.6
2018-Apr-20 12:30 145 3 gusting 9 20.6
2018-Apr-20 12:25 116 2 gusting 9 20.6
2018-Apr-20 12:20 120 6 gusting 11 21.1
2018-Apr-20 12:15 146 6 gusting 11 22.2
2018-Apr-20 12:10 135 1 gusting 7 22.8
2018-Apr-20 12:05 143 1 gusting 7 21.7
2018-Apr-20 12:00 141 1 gusting 7 21.1
2018-Apr-20 11:55 149 4 gusting 7 20.6
2018-Apr-20 11:50 151 3 gusting 7 21.1
2018-Apr-20 11:45 139 2 gusting 6 20.6
2018-Apr-20 11:40 148 3 gusting 6 20.6
2018-Apr-20 11:35 141 0 gusting 6 21.1
2018-Apr-20 11:30 135 1 gusting 6 21.1
2018-Apr-20 11:25 170 1 gusting 7 21.1
2018-Apr-20 11:20 149 0 gusting 10 20.0
2018-Apr-20 11:15 134 1 gusting 14 19.4
2018-Apr-20 11:10 118 7 gusting 15 19.4
2018-Apr-20 11:05 098 9 gusting 15 19.4
2018-Apr-20 11:00 136 9 gusting 12 20.0
2018-Apr-20 10:55 143 2 gusting 9 19.4
2018-Apr-20 10:50 129 5 gusting 11 20.0
2018-Apr-20 10:45 128 4 gusting 11 20.0
2018-Apr-20 10:40 127 3 gusting 6 18.9
2018-Apr-20 10:35 116 3 gusting 9 18.9
2018-Apr-20 10:30 113 3 gusting 12 18.9
2018-Apr-20 10:25 139 6 gusting 12 18.3
2018-Apr-20 10:20 160 3 gusting 10 18.9
2018-Apr-20 10:15 205 6 gusting 13 18.3
2018-Apr-20 10:10 196 6 gusting 15 18.3
2018-Apr-20 10:05 110 9 gusting 15 19.4
2018-Apr-20 10:00 118 6 gusting 9 19.4
2018-Apr-20 09:55 119 3 gusting 10 18.9
2018-Apr-20 09:50 120 4 gusting 10 18.9
2018-Apr-20 09:45 120 2 gusting 11 17.8
2018-Apr-20 09:40 119 4 gusting 13 17.8
2018-Apr-20 09:35 119 8 gusting 13 18.3
2018-Apr-20 09:30 121 7 gusting 11 19.4
2018-Apr-20 09:25 128 6 gusting 11 19.4
2018-Apr-20 09:20 125 3 gusting 10 19.4
2018-Apr-20 09:15 102 4 gusting 13 18.9
2018-Apr-20 09:10 112 4 gusting 13 18.9
2018-Apr-20 09:05 154 3 gusting 6 18.9
2018-Apr-20 09:00 145 1 gusting 10 19.4
2018-Apr-20 08:55 143 5 gusting 10 18.9
2018-Apr-20 08:50 132 5 gusting 9 18.9
2018-Apr-20 08:45 110 5 gusting 9 19.4
2018-Apr-20 08:40 101 1 gusting 8 19.4
2018-Apr-20 08:35 104 6 gusting 9 20.0
2018-Apr-20 08:30 100 6 gusting 13 20.0
2018-Apr-20 08:25 078 5 gusting 13 19.4
2018-Apr-20 08:20 072 6 gusting 10 19.4
2018-Apr-20 08:15 082 6 gusting 10 18.9
2018-Apr-20 08:10 099 4 gusting 9 18.9
2018-Apr-20 08:05 092 3 gusting 8 18.9
2018-Apr-20 08:00 091 3 gusting 8 18.9
2018-Apr-20 07:55 088 4 gusting 6 18.9
2018-Apr-20 07:50 090 3 gusting 6 18.3
2018-Apr-20 07:45 117 5 gusting 6 18.3
2018-Apr-20 07:40 109 2 gusting 6 18.3
2018-Apr-20 07:35 093 3 gusting 6 18.9
2018-Apr-20 07:30 092 3 gusting 6 18.3
2018-Apr-20 07:25 113 3 gusting 4 18.3
2018-Apr-20 07:20 117 3 gusting 4 18.3
2018-Apr-20 07:15 110 1 gusting 3 18.3
2018-Apr-20 07:10 111 1 gusting 3 17.8
2018-Apr-20 07:05 117 2 gusting 3 17.8
2018-Apr-20 07:00 135 0 gusting 5 17.2
2018-Apr-20 06:55 152 1 gusting 5 17.2
2018-Apr-20 06:50 117 2 gusting 4 17.2
2018-Apr-20 06:45 090 1 gusting 3 16.7
2018-Apr-20 06:40 085 0 gusting 6 16.1
2018-Apr-20 06:35 075 1 gusting 6 16.1
2018-Apr-20 06:30 081 4 gusting 6 15.6
2018-Apr-20 06:25 092 1 gusting 3 15.0
2018-Apr-20 06:20 092 3 gusting 3 15.0
2018-Apr-20 06:15 092 1 gusting 3 14.4
2018-Apr-20 06:10 097 1 gusting 2 13.9
2018-Apr-20 06:05 097 1 gusting 2 13.9
2018-Apr-20 06:00 116 0 gusting 1 13.3
2018-Apr-20 05:55 13.3
2018-Apr-20 05:50 096 0 gusting 3 12.8
2018-Apr-20 05:45 093 1 gusting 3 12.8
2018-Apr-20 05:40 094 1 gusting 3 12.8
2018-Apr-20 05:35 104 1 gusting 3 12.8
2018-Apr-20 05:30 102 1 gusting 3 12.8
2018-Apr-20 05:25 090 1 gusting 3 12.2
2018-Apr-20 05:20 088 1 gusting 2 12.2
2018-Apr-20 05:15 12.2
2018-Apr-20 05:10 12.2
2018-Apr-20 05:05 12.2
2018-Apr-20 05:00 12.2
2018-Apr-20 04:55 12.2
2018-Apr-20 04:50 12.2
2018-Apr-20 04:45 12.2
2018-Apr-20 04:40 12.2
2018-Apr-20 04:35 12.2
2018-Apr-20 04:30 12.2
2018-Apr-20 04:25 12.2
2018-Apr-20 04:20 12.2
2018-Apr-20 04:15 12.8
2018-Apr-20 04:10 069 0 gusting 1 12.8
2018-Apr-20 04:05 13.3
2018-Apr-20 04:00 13.3
2018-Apr-20 03:55 119 1 gusting 4 13.3
2018-Apr-20 03:50 129 1 gusting 3 13.3
2018-Apr-20 03:45 123 1 gusting 3 13.3
2018-Apr-20 03:40 119 0 gusting 2 13.3
2018-Apr-20 03:35 13.3
2018-Apr-20 03:30 127 0 gusting 3 13.3
2018-Apr-20 03:25 135 1 gusting 3 13.3
2018-Apr-20 03:20 111 1 gusting 3 13.3
2018-Apr-20 03:15 105 1 gusting 2 13.3
2018-Apr-20 03:10 132 0 gusting 4 13.3
2018-Apr-20 03:05 130 0 gusting 4 13.3
2018-Apr-20 03:00 121 1 gusting 3 13.3
2018-Apr-20 02:55 139 0 gusting 2 13.3
2018-Apr-20 02:50 157 0 gusting 3 13.9
2018-Apr-20 02:45 151 0 gusting 3 13.9
2018-Apr-20 02:40 146 1 gusting 3 13.9
2018-Apr-20 02:35 159 1 gusting 4 13.9
2018-Apr-20 02:30 133 0 gusting 4 14.4
2018-Apr-20 02:25 115 1 gusting 3 13.9
2018-Apr-20 02:20 125 1 gusting 3 13.9
2018-Apr-20 02:15 13.9
2018-Apr-20 02:00 14.4
2018-Apr-20 01:55 14.4
2018-Apr-20 01:40 145 1 gusting 5 15.0
2018-Apr-20 01:30 121 3 gusting 5 15.0
2018-Apr-20 01:25 126 1 gusting 3 15.0
2018-Apr-20 01:20 129 1 gusting 4 15.0
2018-Apr-20 01:15 129 1 gusting 8 15.6
2018-Apr-20 01:10 130 3 gusting 8 15.6
2018-Apr-20 01:00 118 2 gusting 6 15.6
2018-Apr-20 00:45 116 3 gusting 6 15.6
2018-Apr-20 00:40 124 2 gusting 6 15.6
2018-Apr-20 00:35 141 3 gusting 6 16.1
2018-Apr-20 00:25 154 3 gusting 6 16.1
2018-Apr-20 00:20 160 3 gusting 8 16.1
2018-Apr-20 00:15 146 1 gusting 8 16.1
2018-Apr-20 00:10 135 3 gusting 7 16.1
2018-Apr-20 00:05 134 3 gusting 5 16.1
2018-Apr-20 00:00 119 3 gusting 6 16.1
2018-Apr-19 23:55 110 3 gusting 6 16.1
2018-Apr-19 23:50 105 2 gusting 6 16.7
2018-Apr-19 23:45 109 0 gusting 6 16.7
2018-Apr-19 23:40 122 1 gusting 6 16.7
2018-Apr-19 23:35 137 3 gusting 6 16.7
2018-Apr-19 23:30 152 2 gusting 6 16.7
2018-Apr-19 23:25 163 3 gusting 6 16.7
2018-Apr-19 23:20 163 3 gusting 6 16.7
2018-Apr-19 23:15 153 1 gusting 7 16.7
2018-Apr-19 23:10 145 3 gusting 10 16.7
2018-Apr-19 23:05 139 3 gusting 10 16.7
2018-Apr-19 23:00 132 1 gusting 9 16.7
2018-Apr-19 22:55 130 4 gusting 9 16.7
2018-Apr-19 22:50 117 3 gusting 6 16.7
2018-Apr-19 22:45 129 1 gusting 6 16.7
2018-Apr-19 22:40 166 4 gusting 6 16.7
2018-Apr-19 22:35 158 2 gusting 6 16.7
2018-Apr-19 22:30 153 1 gusting 7 16.7
2018-Apr-19 22:25 157 3 gusting 10 16.7
2018-Apr-19 22:20 145 5 gusting 10 16.7
2018-Apr-19 22:15 146 4 gusting 9 16.7
2018-Apr-19 22:10 136 3 gusting 8 17.2
2018-Apr-19 22:05 130 1 gusting 4 17.2
2018-Apr-19 22:00 132 0 gusting 8 17.2
2018-Apr-19 21:55 143 1 gusting 9 17.2
2018-Apr-19 21:50 159 1 gusting 9 17.2
2018-Apr-19 21:45 150 3 gusting 9 17.2
2018-Apr-19 21:40 157 3 gusting 10 17.2
2018-Apr-19 21:35 174 5 gusting 11 17.2
2018-Apr-19 21:30 147 3 gusting 11 17.2
2018-Apr-19 21:25 128 3 gusting 10 17.2
2018-Apr-19 21:20 153 3 gusting 10 17.2
2018-Apr-19 21:15 155 3 gusting 11 17.2
2018-Apr-19 21:10 145 5 gusting 11 17.2
2018-Apr-19 21:05 129 3 gusting 9 17.8
2018-Apr-19 21:00 159 4 gusting 9 17.8
2018-Apr-19 20:55 184 3 gusting 9 17.8
2018-Apr-19 20:50 151 3 gusting 6 17.8
2018-Apr-19 20:45 157 2 gusting 6 17.8
2018-Apr-19 20:40 164 3 gusting 6 17.8
2018-Apr-19 20:35 152 1 gusting 5 17.8
2018-Apr-19 20:30 169 2 gusting 6 18.3
2018-Apr-19 20:25 161 2 gusting 6 18.3
2018-Apr-19 20:20 088 2 gusting 6 18.3
2018-Apr-19 20:15 093 2 gusting 7 18.3
2018-Apr-19 20:10 090 1 gusting 7 18.3
2018-Apr-19 20:05 116 4 gusting 9 18.9
2018-Apr-19 20:00 142 4 gusting 11 18.9
2018-Apr-19 19:55 138 1 gusting 11 18.9
2018-Apr-19 19:50 163 4 gusting 8 18.9
2018-Apr-19 19:45 166 3 gusting 9 19.4
2018-Apr-19 19:40 135 3 gusting 10 19.4
2018-Apr-19 19:35 143 3 gusting 10 19.4
2018-Apr-19 19:30 176 4 gusting 10 19.4
2018-Apr-19 19:25 175 5 gusting 9 19.4
2018-Apr-19 19:20 186 2 gusting 9 19.4
2018-Apr-19 19:15 158 3 gusting 6 20.0
2018-Apr-19 19:10 127 1 gusting 9 20.0
2018-Apr-19 19:05 168 5 gusting 10 20.0
2018-Apr-19 19:00 181 3 gusting 10 20.0
2018-Apr-19 18:55 168 1 gusting 8 20.6
2018-Apr-19 18:50 233 3 gusting 10 20.6
2018-Apr-19 18:45 205 3 gusting 10 21.1
2018-Apr-19 18:40 197 6 gusting 11 21.1
2018-Apr-19 18:35 205 3 gusting 11 21.7
2018-Apr-19 18:30 204 4 gusting 9 21.7
2018-Apr-19 18:25 190 3 gusting 9 22.2
2018-Apr-19 18:20 178 3 gusting 9 22.2
2018-Apr-19 18:15 158 5 gusting 9 22.8
2018-Apr-19 18:10 153 3 gusting 9 23.3
2018-Apr-19 18:05 174 4 gusting 9 23.9
2018-Apr-19 18:00 144 1 gusting 7 23.9
2018-Apr-19 17:55 121 3 gusting 7 23.9
2018-Apr-19 17:50 111 3 gusting 8 24.4
2018-Apr-19 17:45 184 1 gusting 8 24.4
2018-Apr-19 17:40 197 6 gusting 8 24.4
2018-Apr-19 17:35 223 3 gusting 8 25.0
2018-Apr-19 17:30 169 2 gusting 9 25.0
2018-Apr-19 17:25 183 2 gusting 9 25.6
2018-Apr-19 17:20 164 2 gusting 6 26.1
2018-Apr-19 17:15 156 2 gusting 6 26.1
2018-Apr-19 17:10 177 1 gusting 6 26.1
2018-Apr-19 17:05 186 3 gusting 6 26.1
2018-Apr-19 17:00 246 1 gusting 6 26.1
2018-Apr-19 16:55 204 1 gusting 6 26.7
2018-Apr-19 16:50 160 1 gusting 6 25.6
2018-Apr-19 16:45 168 2 gusting 6 25.6
2018-Apr-19 16:40 143 1 gusting 6 26.1
2018-Apr-19 16:35 141 2 gusting 6 26.1
2018-Apr-19 16:30 146 4 gusting 6 26.7
2018-Apr-19 16:25 119 3 gusting 6 26.7
2018-Apr-19 16:20 098 0 gusting 6 26.7
2018-Apr-19 16:15 106 1 gusting 6 27.2
2018-Apr-19 16:10 149 1 gusting 6 26.7
2018-Apr-19 16:05 163 1 gusting 6 26.7
2018-Apr-19 16:00 165 1 gusting 6 27.2
2018-Apr-19 15:55 203 1 gusting 9 27.2
2018-Apr-19 15:50 208 3 gusting 9 26.7
2018-Apr-19 15:45 189 3 gusting 6 27.2
2018-Apr-19 15:40 199 3 gusting 8 27.2
2018-Apr-19 15:35 228 1 gusting 8 27.2
2018-Apr-19 15:30 268 4 gusting 13 27.2
2018-Apr-19 15:25 244 4 gusting 13 26.7
2018-Apr-19 15:20 264 4 gusting 12 27.2
2018-Apr-19 15:15 340 2 gusting 12 27.8
2018-Apr-19 15:10 058 2 gusting 6 28.3
2018-Apr-19 15:05 151 3 gusting 8 27.8
2018-Apr-19 15:00 231 1 gusting 8 27.2